Location: Hylvaty SDH
(49.9612°N, 16.4057°E)
Time: 20:40:06
(UTC+01:00)

Vanguard 1 Rocket - Pass Details

Date: 09 October 2020
Orbit: 656 x 4221 km, 34.3° (Epoch: 30 October)

Event Time Altitude Azimuth Distance (km) Brightness Sun altitude
Rises 22:06:10 0° 270° (W) 5,851 12.1 -35.9°
Reaches altitude 10° 22:10:33 10° 257° (WSW) 5,347 11.6 -36.5°
Maximum altitude 22:22:52 25° 211° (SSW) 5,320 11.1 -37.9°
Enters shadow 22:29:37 21° 189° (S) 5,982 11.2 -38.7°
Drops below altitude 10° 22:39:43 10° 168° (SSE) 7,334 - -39.8°
Sets 22:47:36 0° 157° (SSE) 8,454 - -40.6°
